Weather History for Camden, AR

Change the Weather History Date:

Tuesday, March 26, 2013

  Actual Average Record
Temperature  
Mean Temperature 40 °F -  
Max Temperature 53 °F 66 °F 92 °F (1945)
Min Temperature 26 °F 41 °F 23 °F (1955)
Degree Days  
Heating Degree Days 26    
Moisture  
Dew Point 21 °F    
Average Humidity 53    
Maximum Humidity 87    
Minimum Humidity 26    
Precipitation  
Precipitation 0.00 in - - ()
Sea Level Pressure  
Sea Level Pressure 30.39 in    
Wind  
Wind Speed 2 mph (WNW)    
Max Wind Speed 10 mph    
Max Gust Speed -    
Visibility 10 miles    
Events      
Averages and records for this station are not official NWS values.
T = Trace of Precipitation, MM = Missing Value Source: NWS Daily Summary

Daily Weather History Graph

Daily Weather History Graph

Search for Another Location

Airport:

Trip Planner

Search our weather history database for the weather conditions in past years. The results will help you decide how hot, cold, wet, or windy it might be!

Date:

Astronomy

Mar. 26, 2013 Rise Set
Actual Time 7:06 AM CDT 7:27 PM CDT
Civil Twilight 6:41 AM CDT 7:52 PM CDT
Nautical Twilight 6:12 AM CDT 8:21 PM CDT
Astronomical Twilight 5:42 AM CDT 8:51 PM CDT
Moon 7:03 PM CDT (3/26) 6:22 AM CDT (3/26)
Length of Visible Light 13h 10m
Length of Day
12h 21m
Waxing Gibbous, 99% of the Moon is Illuminated
Mar 26
Waxing Gibbous
Mar 27
Full
Apr 2
Last Quarter
Apr 10
New
Apr 18
First Quarter

Hourly Weather History & Observations

Time (CDT) Temp. Windchill Dew Point Humidity Pressure Visibility Wind Dir Wind Speed Gust Speed Precip Events Conditions
12:15 AM 32.0 °F - 19.4 °F 60% 30.37 in 10.0 mi Calm Calm - N/A   Clear
12:35 AM 32.0 °F - 21.2 °F 64% 30.37 in 10.0 mi Calm Calm - N/A   Clear
12:55 AM 30.2 °F - 23.0 °F 75% 30.38 in 10.0 mi Calm Calm - N/A   Clear
1:15 AM 30.2 °F 26.7 °F 21.2 °F 69% 30.37 in 10.0 mi NW 3.5 mph - N/A   Clear
1:35 AM 32.0 °F 28.7 °F 21.2 °F 64% 30.37 in 10.0 mi NW 3.5 mph - N/A   Clear
1:55 AM 32.0 °F 28.7 °F 19.4 °F 60% 30.37 in 10.0 mi WNW 3.5 mph - N/A   Clear
2:15 AM 32.0 °F 27.5 °F 21.2 °F 64% 30.37 in 10.0 mi WNW 4.6 mph - N/A   Clear
2:35 AM 32.0 °F 28.7 °F 19.4 °F 60% 30.37 in 10.0 mi WNW 3.5 mph - N/A   Clear
2:55 AM 32.0 °F - 21.2 °F 64% 30.37 in 10.0 mi Calm Calm - N/A   Clear
3:15 AM 30.2 °F - 19.4 °F 64% 30.36 in 10.0 mi Calm Calm - N/A   Clear
3:35 AM 28.4 °F 24.6 °F 23.0 °F 80% 30.36 in 10.0 mi WNW 3.5 mph - N/A   Clear
3:55 AM 28.4 °F - 21.2 °F 74% 30.36 in 10.0 mi Calm Calm - N/A   Clear
4:15 AM 28.4 °F 24.6 °F 21.2 °F 74% 30.36 in 10.0 mi NW 3.5 mph - N/A   Clear
4:35 AM 28.4 °F - 21.2 °F 74% 30.36 in 10.0 mi Calm Calm - N/A   Clear
4:55 AM 28.4 °F - 21.2 °F 74% 30.37 in 10.0 mi Calm Calm - N/A   Clear
5:15 AM 26.6 °F - 19.4 °F 74% 30.37 in 10.0 mi Calm Calm - N/A   Clear
5:35 AM 26.6 °F - 21.2 °F 80% 30.37 in 10.0 mi Calm Calm - N/A   Clear
6:15 AM 26.6 °F 22.6 °F 19.4 °F 74% 30.38 in 10.0 mi WNW 3.5 mph - N/A   Clear
6:35 AM 26.6 °F - 19.4 °F 74% 30.39 in 10.0 mi Calm Calm - N/A   Clear
6:55 AM 26.6 °F - 19.4 °F 74% 30.40 in 10.0 mi Calm Calm - N/A   Clear
7:15 AM 26.6 °F - 19.4 °F 74% 30.40 in 10.0 mi Calm Calm - N/A   Clear
7:35 AM 28.4 °F - 19.4 °F 69% 30.41 in 10.0 mi Calm Calm - N/A   Clear
7:55 AM 28.4 °F - 21.2 °F 74% 30.42 in 10.0 mi Calm Calm - N/A   Clear
8:15 AM 32.0 °F - 23.0 °F 69% 30.43 in 10.0 mi Calm Calm - N/A   Clear
8:35 AM 32.0 °F 28.7 °F 21.2 °F 64% 30.44 in 10.0 mi NW 3.5 mph - N/A   Clear
8:55 AM 33.8 °F 29.6 °F 21.2 °F 60% 30.45 in 10.0 mi WNW 4.6 mph - N/A   Clear
9:15 AM 35.6 °F 30.7 °F 21.2 °F 56% 30.45 in 10.0 mi NW 5.8 mph - N/A   Clear
9:35 AM 37.4 °F 32.8 °F 21.2 °F 52% 30.46 in 10.0 mi NW 5.8 mph - N/A   Clear
9:55 AM 39.2 °F 35.0 °F 21.2 °F 49% 30.46 in 10.0 mi North 5.8 mph - N/A   Clear
10:15 AM 41.0 °F 36.4 °F 21.2 °F 45% 30.46 in 10.0 mi NNW 6.9 mph - N/A   Clear
10:35 AM 41.0 °F 37.1 °F 19.4 °F 42% 30.46 in 10.0 mi NW 5.8 mph - N/A   Clear
11:15 AM 44.6 °F 41.4 °F 17.6 °F 34% 30.46 in 10.0 mi North 5.8 mph - N/A   Clear
11:35 AM 44.6 °F 39.2 °F 17.6 °F 34% 30.46 in 10.0 mi WNW 10.4 mph - N/A   Clear
11:55 AM 44.6 °F 43.1 °F 17.6 °F 34% 30.46 in 10.0 mi WSW 3.5 mph - N/A   Clear
12:15 PM 46.4 °F 42.4 °F 17.6 °F 32% 30.45 in 10.0 mi WNW 8.1 mph - N/A   Clear
12:35 PM 46.4 °F 44.3 °F 17.6 °F 32% 30.45 in 10.0 mi NNW 4.6 mph - N/A   Clear
12:55 PM 48.2 °F - 17.6 °F 30% 30.44 in 10.0 mi NW 5.8 mph - N/A   Clear
1:15 PM 48.2 °F - 17.6 °F 30% 30.43 in 10.0 mi NW 8.1 mph - N/A   Clear
1:35 PM 50.0 °F - 17.6 °F 28% 30.43 in 10.0 mi NW 9.2 mph - N/A   Clear
1:55 PM 50.0 °F - 19.4 °F 30% 30.42 in 10.0 mi ENE 3.5 mph - N/A   Clear
2:15 PM 50.0 °F - 19.4 °F 30% 30.41 in 10.0 mi West 6.9 mph - N/A   Clear
2:35 PM 51.8 °F - 19.4 °F 28% 30.40 in 10.0 mi NNW 5.8 mph - N/A   Clear
2:55 PM 51.8 °F - 19.4 °F 28% 30.39 in 10.0 mi NW 6.9 mph - N/A   Clear
3:15 PM 51.8 °F - 19.4 °F 28% 30.38 in 10.0 mi West 8.1 mph - N/A   Clear
3:35 PM 53.6 °F - 19.4 °F 26% 30.38 in 10.0 mi WNW 5.8 mph - N/A   Clear
3:55 PM 53.6 °F - 21.2 °F 28% 30.37 in 10.0 mi WNW 6.9 mph - N/A   Clear
4:15 PM 53.6 °F - 19.4 °F 26% 30.36 in 10.0 mi West 8.1 mph - N/A   Clear
4:35 PM 53.6 °F - 19.4 °F 26% 30.36 in 10.0 mi West 3.5 mph - N/A   Clear
4:55 PM 53.6 °F - 19.4 °F 26% 30.35 in 10.0 mi Calm Calm - N/A   Clear
5:15 PM 53.6 °F - 19.4 °F 26% 30.35 in 10.0 mi Calm Calm - N/A   Clear
5:35 PM 53.6 °F - 19.4 °F 26% 30.35 in 10.0 mi Calm Calm - N/A   Clear
5:55 PM 53.6 °F - 19.4 °F 26% 30.35 in 10.0 mi Calm Calm - N/A   Clear
6:15 PM 51.8 °F - 19.4 °F 28% 30.35 in 10.0 mi NW 3.5 mph - N/A   Clear
6:35 PM 50.0 °F - 19.4 °F 30% 30.35 in 10.0 mi West 4.6 mph - N/A   Clear
6:55 PM 50.0 °F - 21.2 °F 32% 30.35 in 10.0 mi WSW 3.5 mph - N/A   Clear
7:15 PM 48.2 °F - 23.0 °F 37% 30.35 in 10.0 mi WSW 4.6 mph - N/A   Clear
7:35 PM 46.4 °F 45.2 °F 23.0 °F 40% 30.35 in 10.0 mi SW 3.5 mph - N/A   Clear
7:55 PM 44.6 °F - 23.0 °F 43% 30.35 in 10.0 mi Calm Calm - N/A   Clear
8:15 PM 41.0 °F - 24.8 °F 53% 30.35 in 10.0 mi Calm Calm - N/A   Clear
8:35 PM 39.2 °F - 28.4 °F 65% 30.36 in 10.0 mi Calm Calm - N/A   Clear
8:55 PM 37.4 °F - 28.4 °F 70% 30.36 in 10.0 mi Calm Calm - N/A   Clear
9:15 PM 37.4 °F - 28.4 °F 70% 30.36 in 10.0 mi Calm Calm - N/A   Clear
9:35 PM 35.6 °F - 28.4 °F 75% 30.36 in 10.0 mi Calm Calm - N/A   Clear
10:15 PM 33.8 °F - 28.4 °F 81% 30.37 in 10.0 mi Calm Calm - N/A   Clear
10:35 PM 33.8 °F - 28.4 °F 81% 30.38 in 10.0 mi Calm Calm - N/A   Clear
10:55 PM 32.0 °F - 28.4 °F 87% 30.37 in 10.0 mi Calm Calm - N/A   Clear
11:15 PM 32.0 °F - 28.4 °F 87% 30.38 in 10.0 mi Calm Calm - N/A   Clear
11:35 PM 32.0 °F - 28.4 °F 87% 30.38 in 10.0 mi Calm Calm - N/A   Clear